Location: Woodhurst
(52.3667°N, 0.0667°W)
Time: 20:44:27
(UTC+00:00)

ISS - Pass Details

Date: 19 May 2025
Orbit: 415 x 416 km, 51.6° (Epoch: 18 June)

Event Time Altitude Azimuth Distance (km) Brightness Sun altitude
Rises 21:50:08 0° 281° (WNW) 2,362 0.7 -12.6°
Reaches altitude 10° 21:52:18 10° 274° (W) 1,496 -0.5 -12.8°
Maximum altitude 21:55:28 40° 204° (SSW) 634 -3.2 -13.0°
Enters shadow 21:56:54 25° 151° (SSE) 881 -2.8 -13.1°
